Location: Lombard
(41.8800°N, 88.0080°W)
Time: 05:12:50
(UTC-05:00)

Vanguard 2 Rocket - Pass Details

Date: 01 March 2024
Orbit: 555 x 3307 km, 32.9° (Epoch: 12 April)

Event Time Altitude Azimuth Distance (km) Brightness Sun altitude
Rises 13:14:34 0° 239° (WSW) 3,540 10.6 38.4°
Reaches altitude 10° 13:16:47 10° 232° (SW) 2,837 10.4 38.2°
Maximum altitude 13:23:25 44° 162° (SSE) 1,931 9.7 37.7°
Drops below altitude 10° 13:34:47 10° 97° (E) 4,802 10.5 36.8°
Sets 13:39:45 0° 92° (E) 6,252 10.9 36.3°
